104P/Kowal 2 (2016)

Japanese version
Home page
Updated on November 13, 2016

---------------------------------------------------------------------

* Profile

* Pictures

* Orbital Elements

Epoch 2016 July 31.0 TT = JDT 2457600.5
T 2016 Mar. 28.16251 TT                                 MPCW
q   1.1792185            (2000.0)            P               Q
n   0.16727287     Peri.  200.66975     +0.24465075     -0.95845942
a   3.2622635      Node   235.44336     +0.91272955     +0.27868552
e   0.6385275      Incl.   10.25607     +0.32721673     -0.06074474
P   5.89
From 126 observations 2003 Aug. 31-2016 May 16, mean residual 1".0.
     Nongravitational parameters A1 = -2.30, A2 = -0.2410.

* Finding Charts

* Magnitudes Graph

        m1 =  9.0 + 5 log d + 45   log r  [ ,0]  (             - 2016 Mar. 28)
        m1 = 10.8 + 5 log d + 20.0 log r  [0, ]  (2016 Mar. 28 -             )

---------------------------------------------------------------------

The orbital elements are published on M.P.E.C. 2016-K18.
The charts are made with StellaNavigator Ver.8 (AstroArts).
The magnitudes graphs are made with Comet for Windows.

---------------------------------------------------------------------

Copyright(C) Seiichi Yoshida (comet@aerith.net). All rights reserved.